timestamp,wind_dir_avg,wind_spd_avg,wind_spd_max_dir,wind_spd_gust,battery_voltage,lat,long
2021-01-09 00:04:01+00:00,232.0,8.66,243.0,10.66,12.57,47.59359,-54.27349
2021-01-09 00:14:01+00:00,235.0,10.67,232.0,13.08,12.57,47.59359,-54.27349
2021-01-09 00:24:01+00:00,233.0,10.87,233.0,12.92,12.57,47.59359,-54.27349
2021-01-09 00:34:01+00:00,235.0,11.06,241.0,14.44,12.57,47.59359,-54.27349
2021-01-09 00:44:01+00:00,236.0,11.03,236.0,12.26,12.57,47.59359,-54.27349
2021-01-09 00:54:01+00:00,232.0,9.82,229.0,11.54,12.57,47.59359,-54.27349
2021-01-09 01:04:01+00:00,234.0,9.84,239.0,10.89,12.57,47.59359,-54.27349
2021-01-09 01:14:01+00:00,236.0,10.69,237.0,12.11,12.57,47.59359,-54.27349
2021-01-09 01:24:01+00:00,232.0,9.37,230.0,11.41,12.57,47.59359,-54.27349
2021-01-09 01:34:01+00:00,233.0,9.03,227.0,10.48,12.57,47.59359,-54.27349
2021-01-09 01:44:01+00:00,231.0,9.46,238.0,11.26,12.57,47.59359,-54.27349
2021-01-09 01:54:01+00:00,228.0,9.39,234.0,11.07,12.57,47.59359,-54.27349
2021-01-09 02:04:01+00:00,230.0,9.65,234.0,12.19,12.57,47.59359,-54.27349
2021-01-09 02:14:01+00:00,231.0,11.07,231.0,13.91,12.49,47.59359,-54.27349
2021-01-09 02:24:01+00:00,230.0,10.08,223.0,11.56,12.49,47.59359,-54.27349
2021-01-09 02:34:01+00:00,231.0,10.36,238.0,11.62,12.49,47.59359,-54.27349
2021-01-09 02:44:01+00:00,232.0,10.6,241.0,12.92,12.49,47.59359,-54.27349
2021-01-09 02:54:01+00:00,230.0,10.43,225.0,12.29,12.49,47.59359,-54.27349
2021-01-09 03:04:01+00:00,231.0,10.61,233.0,12.3,12.49,47.59359,-54.27349
2021-01-09 03:14:01+00:00,235.0,11.86,236.0,13.09,12.49,47.59359,-54.27349
2021-01-09 03:24:01+00:00,233.0,10.35,239.0,12.21,12.49,47.59359,-54.27349
2021-01-09 03:34:01+00:00,231.0,9.87,232.0,11.22,12.49,47.59359,-54.27349
2021-01-09 03:44:01+00:00,229.0,11.11,235.0,13.03,12.49,47.59359,-54.27349
2021-01-09 03:54:01+00:00,231.0,10.21,238.0,13.17,12.49,47.59359,-54.27349
2021-01-09 04:04:01+00:00,233.0,10.64,237.0,12.97,12.49,47.59359,-54.27349
2021-01-09 04:14:01+00:00,237.0,11.32,241.0,14.02,12.49,47.59359,-54.27349
2021-01-09 04:24:01+00:00,232.0,10.2,238.0,12.09,12.49,47.59359,-54.27349
2021-01-09 04:34:01+00:00,231.0,10.57,240.0,12.99,12.49,47.59359,-54.27349
2021-01-09 04:44:01+00:00,229.0,10.94,233.0,13.27,12.49,47.59359,-54.27349
2021-01-09 04:54:01+00:00,231.0,9.64,243.0,11.48,12.49,47.59359,-54.27349
2021-01-09 05:04:01+00:00,234.0,10.78,232.0,12.82,12.49,47.59359,-54.27349
2021-01-09 05:14:01+00:00,233.0,10.3,232.0,11.77,12.49,47.59359,-54.27349
2021-01-09 05:24:01+00:00,239.0,10.22,247.0,11.51,12.49,47.59359,-54.27349
2021-01-09 05:34:01+00:00,238.0,11.23,236.0,12.29,12.49,47.59359,-54.27349
2021-01-09 05:44:01+00:00,235.0,11.35,235.0,12.92,12.49,47.59359,-54.27349
2021-01-09 05:54:01+00:00,236.0,11.0,237.0,12.65,12.49,47.59359,-54.27349
2021-01-09 06:04:01+00:00,237.0,11.19,241.0,12.79,12.49,47.59359,-54.27349
2021-01-09 06:14:01+00:00,234.0,10.62,232.0,12.26,12.41,47.59359,-54.27349
2021-01-09 06:24:01+00:00,235.0,11.23,234.0,12.38,12.41,47.59359,-54.27349
2021-01-09 06:34:01+00:00,236.0,11.25,238.0,13.22,12.41,47.59359,-54.27349
2021-01-09 06:44:01+00:00,237.0,10.82,238.0,11.94,12.41,47.59359,-54.27349
2021-01-09 06:54:01+00:00,235.0,9.87,239.0,12.54,12.41,47.59359,-54.27349
2021-01-09 07:04:01+00:00,241.0,11.37,240.0,12.82,12.41,47.59359,-54.27349
2021-01-09 07:14:01+00:00,233.0,10.2,238.0,12.61,12.41,47.59359,-54.27349
2021-01-09 07:24:01+00:00,233.0,9.77,232.0,11.39,12.41,47.59359,-54.27349
2021-01-09 07:34:01+00:00,234.0,9.0,235.0,10.07,12.41,47.59359,-54.27349
2021-01-09 07:44:01+00:00,231.0,9.62,228.0,11.29,12.41,47.59359,-54.27349
2021-01-09 07:54:01+00:00,232.0,9.75,232.0,12.24,12.41,47.59359,-54.27349
2021-01-09 08:04:01+00:00,230.0,9.79,229.0,11.18,12.41,47.59359,-54.27349
2021-01-09 08:14:01+00:00,231.0,10.69,235.0,12.74,12.41,47.59359,-54.27349
2021-01-09 08:24:01+00:00,230.0,9.06,225.0,10.12,12.41,47.59359,-54.27349
2021-01-09 08:34:01+00:00,230.0,9.91,231.0,10.95,12.41,47.59359,-54.27349
2021-01-09 08:44:01+00:00,230.0,9.29,229.0,10.74,12.41,47.59359,-54.27349
2021-01-09 08:54:01+00:00,228.0,9.41,233.0,10.74,12.41,47.59359,-54.27349
2021-01-09 09:04:01+00:00,231.0,9.55,239.0,10.93,12.41,47.59359,-54.27349
2021-01-09 09:14:01+00:00,231.0,8.85,228.0,10.26,12.41,47.59359,-54.27349
2021-01-09 09:24:01+00:00,230.0,8.65,231.0,10.61,12.41,47.59359,-54.27349
2021-01-09 09:34:01+00:00,232.0,10.09,233.0,11.85,12.41,47.59359,-54.27349
2021-01-09 09:44:01+00:00,232.0,11.28,232.0,12.93,12.41,47.59359,-54.27349
2021-01-09 09:54:01+00:00,230.0,10.08,220.0,12.6,12.41,47.59359,-54.27349
2021-01-09 10:04:01+00:00,231.0,10.82,236.0,13.09,12.41,47.59359,-54.27349
2021-01-09 10:14:01+00:00,234.0,10.24,236.0,11.92,12.41,47.59359,-54.27349
2021-01-09 10:24:01+00:00,233.0,10.02,236.0,12.18,12.41,47.59359,-54.27349
2021-01-09 10:34:01+00:00,233.0,9.69,239.0,11.67,12.41,47.59359,-54.27349
2021-01-09 10:44:01+00:00,231.0,8.42,235.0,10.14,12.41,47.59359,-54.27349
2021-01-09 10:54:01+00:00,231.0,9.41,231.0,10.64,12.41,47.59359,-54.27349
2021-01-09 11:04:01+00:00,234.0,9.28,235.0,11.0,12.41,47.59359,-54.27349
2021-01-09 11:14:01+00:00,238.0,9.66,239.0,11.52,12.41,47.59359,-54.27349
2021-01-09 11:24:01+00:00,247.0,9.92,247.0,11.68,12.41,47.59359,-54.27349
2021-01-09 11:34:01+00:00,245.0,10.17,244.0,11.2,12.41,47.59359,-54.27349
2021-01-09 11:44:01+00:00,240.0,10.78,243.0,11.58,12.41,47.59359,-54.27349
2021-01-09 11:54:01+00:00,248.0,11.64,250.0,14.2,12.41,47.59359,-54.27349
2021-01-09 12:04:01+00:00,246.0,10.12,243.0,11.87,12.41,47.59359,-54.27349
2021-01-09 12:14:01+00:00,247.0,10.32,242.0,11.28,12.41,47.59359,-54.27349
2021-01-09 12:24:01+00:00,234.0,8.64,228.0,9.84,12.41,47.59359,-54.27349
2021-01-09 12:34:01+00:00,244.0,8.83,241.0,9.88,12.41,47.59359,-54.27349
2021-01-09 12:44:01+00:00,243.0,10.33,245.0,11.67,12.41,47.59359,-54.27349
2021-01-09 12:54:01+00:00,233.0,10.81,234.0,12.42,12.41,47.59359,-54.27349
2021-01-09 13:04:01+00:00,238.0,10.64,238.0,13.05,12.41,47.59359,-54.27349
2021-01-09 13:14:01+00:00,232.0,10.93,230.0,13.04,12.57,47.59359,-54.27349
2021-01-09 13:24:01+00:00,232.0,9.1,233.0,11.01,12.57,47.59359,-54.27349
2021-01-09 13:34:01+00:00,233.0,10.7,233.0,12.45,12.57,47.59359,-54.27349
2021-01-09 13:44:01+00:00,228.0,10.4,231.0,12.22,12.57,47.59359,-54.27349
2021-01-09 13:54:01+00:00,233.0,11.53,235.0,12.93,12.57,47.59359,-54.27349
2021-01-09 14:04:01+00:00,231.0,11.79,232.0,13.14,12.57,47.59359,-54.27349
2021-01-09 14:14:01+00:00,230.0,9.91,236.0,11.78,13.21,47.59359,-54.27349
2021-01-09 14:24:01+00:00,236.0,9.71,244.0,11.16,13.21,47.59359,-54.27349
2021-01-09 14:34:01+00:00,233.0,10.22,232.0,12.68,13.21,47.59359,-54.27349
2021-01-09 14:44:01+00:00,235.0,10.78,233.0,12.57,13.21,47.59359,-54.27349
2021-01-09 14:54:01+00:00,235.0,11.22,239.0,13.05,13.21,47.59359,-54.27349
2021-01-09 15:04:01+00:00,233.0,9.38,231.0,10.91,13.21,47.59359,-54.27349
2021-01-09 15:14:01+00:00,235.0,11.16,234.0,12.24,13.05,47.59359,-54.27349
2021-01-09 15:24:01+00:00,231.0,9.58,244.0,12.94,13.05,47.59359,-54.27349
2021-01-09 15:34:01+00:00,231.0,9.73,230.0,11.86,13.05,47.59359,-54.27349
2021-01-09 15:44:01+00:00,232.0,9.41,241.0,10.56,13.05,47.59359,-54.27349
2021-01-09 15:54:01+00:00,230.0,8.75,231.0,10.54,13.05,47.59359,-54.27349
2021-01-09 16:04:01+00:00,230.0,8.97,243.0,11.09,13.05,47.59359,-54.27349
2021-01-09 16:14:01+00:00,235.0,9.45,240.0,11.25,13.6,47.59359,-54.27349
2021-01-09 16:24:01+00:00,234.0,9.97,239.0,13.67,13.6,47.59359,-54.27349
2021-01-09 16:34:01+00:00,241.0,10.06,239.0,11.21,13.6,47.59359,-54.27349
2021-01-09 16:44:01+00:00,231.0,8.14,231.0,9.69,13.6,47.59359,-54.27349
2021-01-09 16:54:01+00:00,228.0,9.32,222.0,11.07,13.6,47.59359,-54.27349
2021-01-09 17:04:01+00:00,221.0,8.79,226.0,10.0,13.6,47.59359,-54.27349
2021-01-09 17:14:01+00:00,222.0,8.65,225.0,9.99,13.68,47.59359,-54.27349
2021-01-09 17:24:01+00:00,233.0,10.45,220.0,12.81,13.68,47.59359,-54.27349
2021-01-09 17:34:01+00:00,230.0,8.32,233.0,10.5,13.68,47.59359,-54.27349
2021-01-09 17:44:01+00:00,229.0,9.24,231.0,10.93,13.68,47.59359,-54.27349
2021-01-09 17:54:01+00:00,229.0,8.42,229.0,11.04,13.68,47.59359,-54.27349
2021-01-09 18:04:01+00:00,227.0,9.52,218.0,11.73,13.68,47.59359,-54.27349
2021-01-09 18:14:01+00:00,232.0,9.67,242.0,11.62,13.05,47.59359,-54.27349
2021-01-09 18:24:01+00:00,227.0,9.93,224.0,12.0,13.05,47.59359,-54.27349
2021-01-09 18:34:01+00:00,237.0,10.28,237.0,11.77,13.05,47.59359,-54.27349
2021-01-09 18:44:01+00:00,240.0,10.15,245.0,13.0,13.05,47.59359,-54.27349
2021-01-09 18:54:01+00:00,228.0,9.77,235.0,12.86,13.05,47.59359,-54.27349
2021-01-09 19:04:01+00:00,235.0,9.44,237.0,11.43,13.05,47.59359,-54.27349
2021-01-09 19:14:01+00:00,234.0,9.55,235.0,12.01,13.13,47.59359,-54.27349
2021-01-09 19:24:01+00:00,234.0,9.2,234.0,10.95,13.13,47.59359,-54.27349
2021-01-09 19:34:01+00:00,236.0,9.83,248.0,11.82,13.13,47.59359,-54.27349
2021-01-09 19:44:01+00:00,231.0,8.88,237.0,10.34,13.13,47.59359,-54.27349
2021-01-09 19:54:01+00:00,234.0,9.35,230.0,11.5,13.13,47.59359,-54.27349
2021-01-09 20:04:01+00:00,238.0,10.93,238.0,12.16,13.13,47.59359,-54.27349
2021-01-09 20:14:01+00:00,245.0,10.91,248.0,13.59,12.73,47.59359,-54.27349
2021-01-09 20:24:01+00:00,250.0,11.4,252.0,13.27,12.73,47.59359,-54.27349
2021-01-09 20:34:01+00:00,247.0,9.48,241.0,11.09,12.73,47.59359,-54.27349
2021-01-09 20:44:01+00:00,245.0,9.13,237.0,10.94,12.73,47.59359,-54.27349
2021-01-09 20:54:01+00:00,256.0,8.37,255.0,9.97,12.73,47.59359,-54.27349
2021-01-09 21:04:01+00:00,248.0,7.25,252.0,8.73,12.73,47.59359,-54.27349
2021-01-09 21:14:01+00:00,238.0,7.25,242.0,8.75,12.65,47.59359,-54.27349
2021-01-09 21:24:01+00:00,234.0,6.48,234.0,7.44,12.65,47.59359,-54.27349
2021-01-09 21:34:01+00:00,232.0,6.89,231.0,7.72,12.65,47.59359,-54.27349
2021-01-09 21:44:01+00:00,235.0,6.82,244.0,7.49,12.65,47.59359,-54.27349
2021-01-09 21:54:01+00:00,228.0,6.09,231.0,7.13,12.65,47.59359,-54.27349
2021-01-09 22:04:01+00:00,230.0,6.72,232.0,8.3,12.65,47.59359,-54.27349
2021-01-09 22:14:01+00:00,234.0,7.34,235.0,8.19,12.57,47.59359,-54.27349
2021-01-09 22:24:01+00:00,235.0,7.48,232.0,8.54,12.57,47.59359,-54.27349
2021-01-09 22:34:01+00:00,233.0,7.74,231.0,9.08,12.57,47.59359,-54.27349
2021-01-09 22:44:01+00:00,253.0,7.47,252.0,8.34,12.57,47.59359,-54.27349
2021-01-09 22:54:01+00:00,235.0,8.93,231.0,9.92,12.57,47.59359,-54.27349
2021-01-09 23:04:01+00:00,255.0,8.46,252.0,9.75,12.57,47.59359,-54.27349
2021-01-09 23:14:01+00:00,252.0,8.23,253.0,9.21,12.57,47.59359,-54.27349
2021-01-09 23:24:01+00:00,248.0,6.85,249.0,7.82,12.57,47.59359,-54.27349
2021-01-09 23:34:01+00:00,231.0,6.57,232.0,7.83,12.57,47.59359,-54.27349
2021-01-09 23:44:01+00:00,232.0,5.62,230.0,7.21,12.57,47.59359,-54.27349
2021-01-09 23:54:01+00:00,232.0,6.38,238.0,7.49,12.57,47.59359,-54.27349
